Flag for Germany Weather past 2 weeks in Schleswig, Schleswig-Holstein, Germany

Now
41 °F

Light rain. Overcast.


Feels Like: 37 °F
Forecast: 34 / 45 °F
Wind: 6 mph from South

Location: Schleswig

Current Time: Feb 27, 2015 at 1:50:07 AM

Latest Report: Feb 27, 2015 at 1:00 AM


Visibility: 5 mi

Pressure: 29.81 "Hg

Humidity: 85%

Dew point: 37 °F

Location of SchleswigLocation

Historic Weather in Schleswig — Graph

°F

Schleswig temperature yesterday

Maximum temperature yesterday: 44 °F (at 2:00 PM)
Minimum temperature yesterday: 36 °F (at 12:00 AM)
Average temperature yesterday: 41 °F

Past Weeks' High & Low Weather Summary

 TemperatureHumidityPressure
High44 °F (Feb 26, 2:00 PM)100% (Feb 13, 11:00 PM)30.63 "Hg (Feb 13, 11:00 PM)
Low28 °F (Feb 17, 8:00 AM)67% (Feb 23, 3:00 AM)29.21 "Hg (Feb 21, 12:00 PM)
Average36 °F91%29.94 "Hg
* Reported Midnight between Feb 11 and Feb 12 — Midnight between Feb 26 and Feb 27, Schleswig, Weather by CustomWeather, © 2015

Note: Actual official high and low records may vary slightly from our data, if they occured in-between our weather recording intervals... More about our weather records

Advertising

Schleswig weather history for previous 24 hours

 ConditionsComfort  
Time TempWeatherWind HumidityBarometerVisibility
12:00 AM
Fri, Feb 27
43 °FOvercast.6 mph71%29.81 "Hg17 mi
11:00 PM
Thu, Feb 26
43 °FOvercast.6 mph70%29.83 "Hg19 mi
9:00 PM44 °FOvercast.7 mph70%29.86 "Hg16 mi
8:00 PM43 °FOvercast.6 mph73%29.87 "Hg16 mi
7:00 PM43 °FOvercast.6 mph74%29.88 "Hg16 mi
6:00 PM42 °FOvercast.6 mph72%29.90 "Hg16 mi
5:00 PM43 °FPartly sunny.6 mph70%29.91 "Hg16 mi
3:00 PM44 °FScattered clouds.7 mph68%29.96 "Hg16 mi
2:00 PM44 °FPartly sunny.7 mph67%29.99 "Hg16 mi
1:00 PM43 °FOvercast.6 mph78%30.01 "Hg6 mi
12:00 PM42 °FFog.6 mph86%30.05 "Hg3 mi
11:00 AM40 °FFog.5 mph93%30.07 "Hg2 mi
10:00 AM40 °FFog.5 mph95%30.09 "Hg2 mi
9:00 AM39 °FFog.5 mph97%30.09 "Hg2 mi
7:00 AM37 °FFog.3 mph97%30.09 "Hg2 mi
6:00 AM37 °FFog.3 mph97%30.10 "Hg2 mi
3:00 AM38 °FFog.2 mph96%30.10 "Hg2 mi
2:00 AM38 °FLow clouds.2 mph95%30.10 "Hg3 mi
1:00 AM37 °FOvercast.2 mph97%30.10 "Hg4 mi
Weather by CustomWeather, © 2015

See weather overviewHow to use our weather pages